Frenchville, ME

6:47 PM EDT on March 28, 2017 (GMT -0400)
Northern Aroostook Regional

Weather History for KFVE - May, 2014

Change the Weather History Date:

Saturday, May 17, 2014

  Actual Average Record
Temperature  
Mean Temperature 56 °F 51 °F  
Max Temperature 61 °F 61 °F 79 °F (1999)
Min Temperature 50 °F 41 °F 32 °F (2007)
Degree Days  
Heating Degree Days 9    
Month to date heating degree days 293  
Since 1 July heating degree days 9715  
Cooling Degree Days 0    
Month to date cooling degree days 2  
Year to date cooling degree days 2  
Growing Degree Days 6 (Base 50)    
Moisture  
Dew Point 51 °F    
Average Humidity 91    
Maximum Humidity 100    
Minimum Humidity 64    
Precipitation  
Precipitation 0.49 in 0.10 in 0.55 in (2006)
Month to date precipitation 2.05 1.54  
Year to date precipitation 8.65 8.40  
Sea Level Pressure  
Sea Level Pressure 30.02 in    
Wind  
Wind Speed 15 mph (SSE)    
Max Wind Speed 28 mph    
Max Gust Speed 36 mph    
Visibility 7 miles    
Events Rain    
T = Trace of Precipitation, MM = Missing Value Source: NWS Daily Summary

Daily Weather History Graph

Daily Weather History Graph

Search for Another Location

Airport or City:

Trip Planner

Search our weather history database for the weather conditions in past years. The results will help you decide how hot, cold, wet, or windy it might be!

Date:

Astronomy

May. 17, 2014 Rise Set
Actual Time 4:54 AM EDT 8:05 PM EDT
Civil Twilight 4:17 AM EDT 8:42 PM EDT
Nautical Twilight 3:30 AM EDT 9:30 PM EDT
Astronomical Twilight 2:31 AM EDT 10:30 PM EDT
Moon 11:01 PM EDT (5/17) 7:34 AM EDT (5/17)
Length of Visible Light 16h 24m
Length of Day
15h 10m
Waning Gibbous, 89% of the Moon is Illuminated
May 17
Waning Gibbous
May 21
Last Quarter
May 28
New
Jun 5
First Quarter
Jun 13
Full

Hourly Weather History & Observations

Time (EDT) Temp. Dew Point Humidity Pressure Visibility Wind Dir Wind Speed Gust Speed Precip Events Conditions
12:23 AM 57.0 °F 48.9 °F 74% 30.10 in 10.0 mi SSE 15.0 mph - N/A   Scattered Clouds
12:53 AM 55.9 °F 50.0 °F 80% 30.09 in 10.0 mi SSE 15.0 mph 21.9 mph N/A   Clear
1:53 AM 54.0 °F 50.0 °F 86% 30.06 in 10.0 mi SSE 16.1 mph - N/A   Partly Cloudy
2:32 AM 54.0 °F 50.0 °F 86% 30.06 in 10.0 mi SSE 17.3 mph - N/A   Mostly Cloudy
2:43 AM 54.0 °F 50.0 °F 86% 30.06 in 10.0 mi SSE 19.6 mph - N/A   Scattered Clouds
2:53 AM 54.0 °F 50.0 °F 86% 30.05 in 10.0 mi SSE 17.3 mph - N/A   Partly Cloudy
3:25 AM 53.1 °F 50.0 °F 89% 30.05 in 10.0 mi SSE 17.3 mph - N/A   Mostly Cloudy
3:53 AM 53.1 °F 50.0 °F 89% 30.05 in 10.0 mi SE 11.5 mph - N/A   Overcast
4:02 AM 53.1 °F 48.9 °F 86% 30.05 in 10.0 mi SSE 13.8 mph - N/A   Overcast
4:23 AM 53.1 °F 48.9 °F 86% 30.04 in 10.0 mi SSE 11.5 mph - N/A   Overcast
4:53 AM 53.1 °F 50.0 °F 89% 30.04 in 10.0 mi SSE 11.5 mph - N/A   Overcast
5:03 AM 53.1 °F 50.0 °F 89% 30.05 in 10.0 mi SSE 12.7 mph - N/A   Overcast
5:49 AM 53.6 °F 50.0 °F 88% 30.04 in 10.0 mi SE 11.5 mph - N/A   Overcast
5:53 AM 53.1 °F 50.0 °F 89% 30.03 in 10.0 mi SE 15.0 mph - N/A   Overcast
6:21 AM 53.1 °F 50.0 °F 89% 30.03 in 10.0 mi SE 17.3 mph 24.2 mph N/A   Overcast
6:38 AM 53.1 °F 50.0 °F 89% 30.02 in 10.0 mi SSE 17.3 mph - N/A   Overcast
6:53 AM 54.0 °F 50.0 °F 86% 30.01 in 10.0 mi SSE 17.3 mph - N/A   Overcast
7:53 AM 54.0 °F 51.1 °F 90% 30.01 in 10.0 mi SSE 20.7 mph 31.1 mph N/A   Overcast
8:07 AM 55.0 °F 51.1 °F 86% 30.01 in 10.0 mi SE 19.6 mph 29.9 mph N/A   Overcast
8:30 AM 55.0 °F 51.1 °F 86% 30.01 in 10.0 mi SE 21.9 mph 31.1 mph N/A   Overcast
8:53 AM 55.9 °F 51.1 °F 84% 30.00 in 10.0 mi SSE 19.6 mph 29.9 mph N/A   Overcast
9:53 AM 57.9 °F 51.1 °F 78% 29.99 in 10.0 mi SSE 21.9 mph 31.1 mph N/A   Overcast
10:53 AM 59.0 °F 51.1 °F 75% 30.00 in 10.0 mi SSE 25.3 mph 34.5 mph N/A   Overcast
11:29 AM 61.0 °F 50.0 °F 67% 30.00 in 10.0 mi SSE 23.0 mph 31.1 mph N/A   Overcast
11:53 AM 61.0 °F 48.9 °F 64% 30.00 in 10.0 mi SSE 19.6 mph 32.2 mph 0.00 in Rain Light Rain
12:53 PM 57.0 °F 52.0 °F 83% 30.02 in 6.0 mi South 16.1 mph 25.3 mph 0.05 in Rain Rain
1:53 PM 55.9 °F 54.0 °F 93% 29.98 in 10.0 mi SSE 19.6 mph 29.9 mph 0.11 in Rain Light Rain
2:53 PM 57.9 °F 53.1 °F 84% 29.98 in 10.0 mi SSE 16.1 mph - 0.00 in   Overcast
3:17 PM 55.9 °F 53.1 °F 90% 29.99 in 5.0 mi SSE 16.1 mph - 0.00 in Rain Light Rain
3:53 PM 55.9 °F 53.1 °F 90% 29.98 in 9.0 mi SSE 11.5 mph - 0.01 in Rain Light Rain
4:53 PM 55.9 °F 53.1 °F 90% 29.98 in 10.0 mi SSE 17.3 mph 24.2 mph 0.01 in   Overcast
5:23 PM 55.9 °F 53.1 °F 90% 29.98 in 6.0 mi SSE 15.0 mph - 0.00 in Rain Light Rain
5:53 PM 55.0 °F 54.0 °F 96% 29.98 in 2.5 mi SSE 16.1 mph - 0.05 in Rain Rain
6:02 PM 55.0 °F 54.0 °F 96% 29.98 in 5.0 mi SSE 15.0 mph 21.9 mph 0.00 in Rain Light Rain
6:53 PM 54.0 °F 53.1 °F 97% 29.99 in 4.0 mi SSE 13.8 mph 21.9 mph 0.02 in Rain Light Rain
7:14 PM 53.1 °F 53.1 °F 100% 29.99 in 2.5 mi SSE 13.8 mph - 0.02 in Rain Rain
7:21 PM 53.1 °F 53.1 °F 100% 29.99 in 3.0 mi SSE 11.5 mph - 0.03 in Rain Light Rain
7:34 PM 53.1 °F 53.1 °F 100% 29.99 in 1.8 mi SSE 12.7 mph - 0.03 in Rain Light Rain
7:49 PM 53.6 °F 53.6 °F 100% 29.99 in 2.5 mi SSE 13.8 mph - 0.03 in Rain Light Rain
7:53 PM 53.1 °F 53.1 °F 100% 30.00 in 2.0 mi SSE 12.7 mph - 0.04 in Rain Light Rain
7:58 PM 53.1 °F 53.1 °F 100% 29.99 in 1.5 mi SSE 15.0 mph - 0.01 in Rain Rain
8:07 PM 53.1 °F 53.1 °F 100% 29.99 in 0.8 mi SSE 11.5 mph - 0.02 in Rain Light Rain
8:51 PM 53.6 °F 53.6 °F 100% 30.00 in 1.5 mi SSE 12.7 mph - 0.12 in Rain Light Rain
8:53 PM 53.1 °F 53.1 °F 100% 30.01 in 2.0 mi SSE 12.7 mph - 0.12 in Rain Light Rain
9:10 PM 53.1 °F 53.1 °F 100% 30.00 in 4.0 mi SSE 11.5 mph - 0.01 in Rain Light Rain
9:53 PM 53.1 °F 53.1 °F 100% 30.01 in 2.5 mi SSE 10.4 mph - 0.04 in Rain Light Rain
10:10 PM 54.0 °F 53.1 °F 97% 30.01 in 4.0 mi South 9.2 mph 23.0 mph 0.00 in Rain Light Rain
10:17 PM 53.1 °F 53.1 °F 100% 30.01 in 1.8 mi South 10.4 mph - 0.00 in Rain Light Rain
10:21 PM 53.1 °F 53.1 °F 100% 30.01 in 1.2 mi South 8.1 mph - 0.01 in Rain Light Rain
10:39 PM 51.1 °F 51.1 °F 100% 30.02 in 1.8 mi West 12.7 mph - 0.04 in Rain Light Rain
10:41 PM 51.1 °F 50.0 °F 96% 30.02 in 3.0 mi West 11.5 mph - 0.04 in Rain Light Rain
10:53 PM 51.1 °F 50.0 °F 96% 30.03 in 5.0 mi West 10.4 mph - 0.04 in Rain Light Rain
10:57 PM 50.0 °F 50.0 °F 100% 30.03 in 5.0 mi West 10.4 mph - 0.00 in Rain Light Rain
11:00 PM 50.0 °F 50.0 °F 100% 30.03 in 5.0 mi West 9.2 mph - 0.00 in Rain Light Rain
11:53 PM 50.0 °F 50.0 °F 100% 30.02 in 5.0 mi SE 4.6 mph - 0.00 in   Overcast